Temperature
20 20 20 20 23 24 23 23 23 23 23 22 22 22 22 22 22 20 17 17 17 17 17 17 17 17 17 17 17 17 17 17 17 17 17 17 17 17 17 17 17 17 17 17 17 17 17 17 17
20 20 20 22 24 24 23 23 23 23 22 21 21 22 22 21 19 18 17 17 17 17 17 17 17 17 17 17 17 17 17 17 17 17 17 17 17 17 17 17 17 17 17 17 17 17 17 17 17
20 20 21 23 24 24 23 23 23 22 21 21 22 21 21 20 18 18 17 17 17 16 16 17 17 17 17 17 17 17 17 17 17 17 17 17 17 17 17 17 17 17 17 17 17 17 17 17 17
20 20 22 23 23 23 23 23 23 22 22 21 22 21 20 18 18 17 17 17 17 16 16 16 17 17 17 17 17 17 17 17 17 16 16 17 17 17 17 17 17 17 17 17 17 17 17 17 17
20 22 23 23 22 22 23 23 22 23 22 22 22 21 20 18 17 17 17 17 16 16 16 16 17 17 17 17 16 16 17 16 16 16 16 16 16 17 17 17 17 17 17 17 17 17 17 17 17
21 23 23 23 22 22 22 22 22 22 22 21 21 21 19 17 17 17 17 16 16 16 16 16 17 17 17 17 16 17 17 16 16 16 16 16 16 16 16 16 16 16 16 16 16 16 16 16 16
22 23 23 23 22 22 22 22 22 22 22 21 21 21 19 18 17 17 17 16 16 16 16 16 16 16 16 16 16 16 17 16 16 16 16 16 16 16 16 16 16 16 16 16 16 16 16 16 16
21 23 23 23 22 22 22 21 21 22 22 20 20 21 20 18 17 17 16 16 16 16 16 16 16 16 16 16 16 16 16 16 16 16 16 16 16 16 16 16 16 16 16 16 16 16 16 16 16
21 23 22 22 22 22 21 21 21 21 21 20 20 20 19 18 17 17 17 16 16 16 16 16 16 16 16 16 16 16 16 16 16 16 16 16 16 16 16 16 16 16 16 16 16 16 16 16 16
22 23 22 23 23 22 22 22 21 21 21 21 20 19 18 17 17 17 17 17 17 16 16 16 16 16 16 16 16 16 16 16 16 16 16 16 16 16 16 16 16 16 16 16 16 16 16 16 16
23 22 22 22 22 22 22 21 21 22 22 21 20 19 18 17 18 17 17 17 17 16 16 16 16 16 16 16 16 16 16 16 16 16 16 16 16 16 16 16 15 15 15 15 15 15 15 15 15
23 22 22 22 21 21 22 21 21 21 21 20 20 19 18 18 18 18 18 17 17 16 16 16 16 16 16 16 16 16 16 16 16 16 16 16 16 16 16 16 15 15 15 15 15 15 15 15 15
22 22 21 21 21 21 21 21 21 20 20 20 19 19 18 18 18 18 17 17 17 16 16 16 16 16 16 16 16 16 16 16 16 16 16 16 16 16 16 15 15 15 15 15 15 15 15 15 15
22 22 22 21 21 21 21 21 21 20 20 19 19 19 19 18 18 18 17 17 17 17 16 16 16 16 16 16 16 16 16 15 16 15 15 15 15 15 15 15 15 15 15 15 15 15 15 15 15
22 22 22 22 22 22 22 22 22 20 20 20 19 19 19 18 18 18 18 17 17 17 16 16 16 16 16 16 16 15 15 15 15 15 15 15 15 15 15 15 15 15 15 15 15 15 14 14 14
23 23 22 22 22 22 22 22 22 20 20 20 20 19 18 18 18 18 17 17 17 17 16 16 16 16 16 15 15 15 15 15 15 15 15 15 15 15 15 15 15 14 14 14 14 14 14 14 14
22 23 22 22 22 22 22 22 22 20 20 20 20 19 19 18 18 18 17 17 17 17 16 16 16 16 16 15 15 15 15 15 15 15 15 15 15 15 15 14 14 14 14 14 14 14 14 14 14
23 23 23 23 23 22 22 22 22 20 20 20 20 19 19 19 18 18 17 17 17 17 16 16 16 16 15 15 15 15 15 15 15 14 14 14 14 14 14 14 14 14 14 14 14 13 13 13 13
23 22 22 23 23 22 22 22 22 21 20 20 20 20 19 19 18 18 17 17 17 16 16 16 16 16 15 15 15 15 15 14 14 14 14 14 14 14 14 14 14 14 13 13 13 13 13 13 13
22 22 22 23 22 22 22 22 22 21 20 20 20 20 19 19 18 17 17 17 17 16 16 16 16 16 15 15 15 15 15 14 14 14 14 14 14 14 14 14 13 13 13 13 13 13 13 13 13
22 22 23 22 22 22 22 22 22 22 21 19 19 19 19 19 18 18 17 17 16 16 16 16 16 15 15 15 15 15 14 14 14 14 14 14 14 14 14 13 13 13 13 13 13 13 13 13 13
22 23 22 22 22 22 22 22 23 23 21 20 19 19 19 18 18 17 17 17 16 16 16 16 15 15 15 15 15 14 14 14 14 14 13 13 13 13 13 13 13 13 13 13 13 12 12 12 12
23 22 22 22 22 22 22 22 23 22 22 21 20 19 18 18 17 17 17 16 16 16 16 15 15 15 15 15 15 14 14 14 14 13 13 13 13 13 13 13 13 13 13 12 12 12 12 12 12
22 22 22 22 22 21 22 22 22 23 22 22 21 19 18 18 17 17 16 16 16 16 15 15 15 15 15 14 14 14 14 13 13 13 13 13 13 13 13 13 13 12 12 12 12 12 12 12 12
22 22 22 22 22 22 22 21 22 23 22 21 21 20 19 18 17 17 16 16 16 15 15 15 15 15 14 14 14 13 13 13 13 13 13 13 12 12 12 12 12 12 12 12 12 12 12 12 12
22 23 22 21 21 22 22 21 22 22 20 20 19 19 18 18 17 16 16 16 15 15 15 15 15 14 14 14 14 13 13 13 13 13 13 12 12 12 12 12 12 12 12 12 12 12 12 12 11
22 22 23 22 22 21 22 22 22 21 21 20 19 18 18 17 17 16 15 15 15 15 15 15 14 14 14 14 14 13 13 13 13 13 13 12 12 12 12 12 12 12 12 12 12 11 11 11 11
22 22 22 21 21 21 21 21 22 21 21 20 20 19 18 17 16 16 15 15 15 15 15 14 14 14 14 14 13 13 13 13 13 12 12 12 12 12 12 12 12 12 12 11 11 11 11 11 11
21 22 22 22 21 21 21 21 22 21 20 20 20 19 18 17 16 16 15 15 15 14 14 14 14 13 13 13 13 13 13 12 12 12 12 12 12 12 12 11 11 11 11 11 11 11 11 11 11
22 22 22 21 21 21 21 21 22 21 20 20 19 19 17 16 16 15 15 14 14 14 14 14 13 13 13 13 13 12 13 12 12 12 12 12 12 12 11 11 11 11 11 11 11 11 11 11 11
Wind_Speed
5 3 2 2 2 2 4 4 3 4 3 4 4 3 4 5 4 4 3 3 3 3 4 5 6 6 7 7 8 8 8 8 8 8 8 8 8 8 9 9 9 9 10 10 9 9 9 9 8
3 1 2 2 2 3 4 4 5 5 4 4 4 4 4 5 4 4 4 4 3 4 5 6 7 7 7 7 7 8 8 8 8 7 8 8 8 9 8 9 9 9 9 9 9 10 9 9 8
3 1 1 1 1 2 5 5 6 6 4 2 3 3 3 4 4 3 4 5 4 6 6 8 7 7 7 7 7 7 7 7 7 7 8 8 9 8 7 8 8 9 9 9 9 9 9 9 8
1 1 1 1 5 4 4 5 5 5 4 2 3 4 4 4 3 4 6 5 6 6 6 9 8 7 7 7 7 7 7 7 7 8 8 8 8 8 8 8 8 8 8 8 9 9 9 9 8
1 1 2 4 4 4 3 3 2 3 3 3 3 4 4 4 5 7 7 6 6 6 6 8 8 8 8 7 8 8 7 7 7 8 8 8 8 9 9 9 9 9 9 8 9 9 9 9 9
1 1 2 3 5 4 4 3 3 3 4 3 3 4 4 5 6 6 6 5 6 6 6 7 8 7 8 8 7 7 7 7 7 7 8 8 8 8 9 9 10 9 9 9 9 9 9 9 9
1 1 2 4 4 3 3 2 2 3 3 3 2 3 5 6 6 6 6 6 5 6 5 5 6 7 7 8 8 8 7 7 7 8 8 8 8 8 9 9 9 9 9 9 9 9 9 9 9
0 1 3 3 4 3 3 3 3 2 4 3 1 2 4 6 7 7 6 6 5 5 5 5 5 5 6 8 9 8 8 8 8 7 8 7 7 8 7 8 9 9 9 9 9 9 9 9 9
1 2 2 3 3 4 3 3 3 3 4 3 3 3 5 9 8 7 6 5 5 5 4 4 5 5 5 6 7 7 8 7 6 6 6 4 5 6 6 9 9 8 8 9 9 8 8 7 9
2 2 2 2 2 4 4 3 3 3 3 3 4 5 7 8 8 7 6 5 5 5 4 4 4 4 5 5 5 5 5 5 5 5 5 5 5 6 6 8 7 7 7 7 7 6 4 3 6
2 2 3 3 3 3 3 2 2 3 1 1 3 6 8 8 7 6 5 5 5 5 5 4 4 4 4 4 4 4 4 4 4 5 5 4 4 4 4 4 5 5 4 5 5 4 5 6 6
3 2 2 2 3 3 2 2 1 1 0 1 3 6 8 8 6 6 5 5 5 5 5 4 4 4 4 4 4 3 3 3 3 4 4 4 3 3 4 3 4 3 3 4 4 4 5 5 6
3 3 2 2 2 2 2 2 2 2 1 2 5 7 8 7 6 6 5 5 6 5 5 5 4 4 4 4 3 3 3 3 4 3 3 4 3 3 3 3 3 3 3 3 3 3 4 5 5
3 3 2 2 2 2 2 3 3 3 3 4 5 6 7 7 6 6 6 5 5 5 5 5 4 4 3 3 3 3 3 3 3 3 3 4 3 3 3 3 3 3 3 3 3 3 3 3 4
4 3 2 2 2 2 3 3 4 3 4 5 5 6 6 6 6 6 6 6 6 5 5 5 4 4 3 3 2 3 3 3 3 3 3 4 4 3 3 3 3 3 3 2 3 3 3 2 2
4 4 3 2 2 3 5 4 2 3 5 5 5 6 6 6 6 6 6 6 6 5 5 5 4 4 3 3 2 2 3 3 2 3 3 3 4 4 3 2 3 3 2 2 2 2 2 2 2
5 4 3 2 2 3 5 5 3 4 5 5 6 6 7 7 7 6 6 6 6 6 6 6 5 4 4 3 3 2 2 2 2 2 2 2 3 3 3 2 2 2 1 1 2 2 2 2 2
4 4 4 4 2 4 6 7 6 5 7 6 6 6 7 7 7 7 7 6 6 6 5 6 5 5 4 3 3 3 2 2 2 2 1 2 2 2 2 1 1 1 1 1 1 2 1 1 1
4 5 5 4 3 5 7 8 7 6 7 8 7 7 7 7 6 7 7 7 7 7 7 6 6 6 5 3 3 3 2 2 2 1 1 1 1 1 1 1 1 1 1 1 1 1 1 1 1
6 7 7 4 2 4 7 9 7 7 8 8 8 8 8 7 7 7 8 8 7 7 7 7 7 6 5 4 3 3 2 2 1 1 1 1 1 1 1 1 0 0 0 0 0 0 0 1 1
8 8 7 6 4 5 6 7 5 5 6 7 7 8 8 8 8 9 9 9 8 8 7 6 7 7 5 5 3 3 2 2 2 2 1 1 1 0 0 1 0 0 0 1 1 1 1 1 1
8 5 6 6 7 4 4 6 4 4 5 6 7 8 8 8 8 8 9 9 9 8 7 7 6 6 6 6 5 5 4 3 3 2 2 2 2 1 1 1 1 1 1 1 2 1 2 2 1
5 2 5 7 8 8 7 7 4 2 4 5 5 7 8 8 8 9 9 9 8 8 7 6 6 6 5 5 5 5 4 3 3 2 2 2 1 1 1 1 2 2 1 2 2 2 2 3 3
4 4 4 6 6 8 6 6 4 2 3 3 3 5 6 8 8 8 8 8 7 7 7 6 6 6 5 5 5 6 5 4 3 3 2 2 2 2 1 2 2 2 2 2 3 3 3 3 3
7 6 5 5 5 4 1 4 4 3 3 3 3 3 4 6 7 8 8 8 7 8 7 7 7 7 6 6 5 6 6 5 5 4 3 3 2 2 2 2 3 2 3 3 3 3 3 4 4
7 8 6 4 5 3 3 5 3 2 3 2 2 1 3 5 6 7 7 8 7 8 8 8 8 7 7 7 6 6 5 5 4 4 4 3 3 3 3 3 3 3 3 3 3 3 3 3 4
7 7 6 7 7 6 4 4 4 1 0 0 1 1 2 4 5 6 6 6 7 7 7 8 8 7 7 7 6 6 6 5 5 5 4 3 3 3 3 3 3 3 3 3 3 3 4 3 4
6 5 5 5 5 6 5 5 4 2 1 0 0 1 2 3 4 5 5 5 6 6 6 6 7 7 7 7 6 5 5 5 4 4 4 4 4 3 3 3 3 3 4 4 4 4 4 4 4
6 7 7 6 6 5 5 2 1 2 3 2 1 1 2 3 4 4 4 5 5 5 5 6 6 6 6 6 6 6 5 5 5 4 5 4 4 4 4 4 4 4 4 4 4 5 5 5 5
7 8 9 8 7 6 6 4 1 1 3 3 2 1 2 3 4 4 4 4 5 5 5 5 6 6 6 5 6 6 5 5 5 5 5 5 5 5 5 4 5 4 4 4 5 5 5 6 6
Wind_Direction
152 162 215 237 207 126 94 88 96 100 78 67 65 61 57 39 24 60 81 83 76 85 93 109 98 91 87 86 81 81 83 82 82 84 85 85 84 82 83 81 78 75 72 69 66 64 63 63 66
147 174 232 242 207 132 107 98 95 77 92 107 87 73 69 64 56 85 102 93 91 87 88 91 95 94 90 86 81 77 80 82 83 82 83 83 82 79 77 77 76 76 72 69 66 64 61 59 61
137 230 281 211 105 93 108 105 94 90 100 119 95 61 46 61 77 91 100 112 101 89 85 86 89 93 91 87 83 78 81 81 81 81 80 80 78 78 77 76 77 76 73 69 66 65 62 58 58
202 195 188 120 99 76 93 110 111 114 102 88 105 91 81 59 71 97 112 112 102 93 86 86 81 85 87 85 86 81 81 80 78 77 79 78 76 74 74 73 73 74 73 71 67 65 62 59 58
235 221 143 119 103 92 83 80 103 102 97 92 107 95 93 83 90 108 115 110 103 98 92 91 83 81 82 83 84 78 77 76 76 74 75 75 74 73 71 69 69 69 69 71 69 67 65 61 62
190 207 152 128 113 106 91 82 99 95 96 96 108 106 97 106 112 116 117 109 99 97 97 96 93 84 79 76 77 75 74 73 77 77 74 73 72 73 70 67 66 65 65 68 69 68 67 64 64
149 115 114 120 123 118 96 84 92 95 101 88 96 106 115 123 123 126 120 110 98 96 96 93 100 102 95 79 71 69 72 74 75 79 76 74 71 74 73 71 66 64 63 64 67 68 68 65 64
126 147 131 131 135 119 104 92 73 71 83 82 82 97 116 134 137 136 125 116 109 105 101 93 92 93 98 97 79 68 70 74 75 77 76 79 89 86 80 81 70 64 63 64 67 66 68 66 66
185 168 142 142 140 122 120 111 87 81 103 98 85 71 99 132 144 142 135 129 122 114 109 101 97 92 88 87 88 86 85 82 92 94 90 94 89 86 86 69 69 70 71 70 68 67 68 74 81
180 145 115 111 125 123 133 131 122 134 128 129 124 115 124 144 153 151 150 143 135 127 117 112 106 100 94 88 89 82 81 81 81 81 85 80 77 73 76 86 78 79 82 86 78 80 93 74 76
132 129 113 119 125 136 141 138 153 160 139 147 149 146 148 155 158 158 155 143 137 131 119 116 116 109 102 97 86 77 75 76 79 78 83 80 80 81 76 86 98 92 95 85 92 96 67 63 63
127 116 143 129 132 151 157 154 161 200 340 94 139 147 156 163 166 167 161 150 147 137 132 127 124 119 113 105 91 86 84 77 76 78 80 83 75 72 69 66 67 70 70 66 67 63 68 66 68
140 129 119 135 148 176 180 202 217 223 223 155 147 155 164 170 172 170 162 155 152 147 147 140 137 128 120 109 101 102 90 80 79 68 68 71 67 70 74 72 67 67 71 76 68 68 68 61 57
131 134 153 176 181 193 203 229 231 228 179 162 165 171 173 176 178 171 169 170 164 160 155 147 151 139 130 122 123 106 96 94 75 66 58 61 68 63 65 68 71 66 67 65 69 71 71 60 54
154 162 187 195 207 201 218 236 229 208 182 183 185 183 177 182 182 183 179 177 172 167 158 153 153 146 140 125 114 103 104 96 84 74 62 66 62 59 57 56 66 67 69 68 61 67 65 63 56
200 216 219 179 209 211 235 252 200 173 185 196 200 194 188 188 191 191 187 182 177 173 165 157 158 161 147 141 129 119 115 102 92 80 58 62 64 64 64 58 58 55 58 57 56 51 58 59 47
215 229 238 212 200 220 236 260 219 198 211 215 212 203 198 195 197 195 192 190 183 178 175 170 172 169 159 151 139 124 121 118 102 90 72 61 66 67 73 58 50 56 55 62 59 50 46 47 43
228 246 254 258 218 236 251 261 255 232 226 226 220 214 209 205 203 196 194 193 186 181 179 177 174 173 163 160 154 145 139 133 123 102 91 73 61 64 73 76 62 60 66 68 78 73 58 46 46
248 254 267 282 269 262 266 270 265 244 233 229 226 220 216 212 203 192 191 190 189 185 186 184 185 178 175 173 171 170 164 154 139 120 97 93 72 61 67 61 62 48 72 71 94 83 86 45 6
235 248 265 275 235 265 279 280 271 239 233 234 233 228 221 210 195 186 188 186 190 190 193 190 192 184 180 182 182 179 170 176 152 148 132 113 79 59 48 43 66 111 109 152 91 36 313 15 322
243 253 264 280 282 251 278 272 245 231 230 231 233 232 223 211 200 186 186 187 189 193 193 193 193 185 179 177 178 169 165 183 180 184 194 213 219 180 69 18 329 277 210 236 248 219 238 276 294
250 252 255 259 270 274 261 291 277 237 231 228 227 224 220 211 205 192 188 190 193 195 195 194 187 183 181 179 184 187 191 195 202 192 195 210 219 223 233 263 263 252 250 251 254 250 256 264 274
253 237 239 254 267 276 254 267 285 234 251 237 225 220 217 210 204 197 193 193 193 190 191 194 185 181 181 187 181 195 198 197 192 190 193 202 205 228 237 259 256 255 256 262 264 264 259 255 268
208 208 217 232 252 263 259 254 290 256 275 282 233 219 211 205 200 198 193 190 187 181 184 187 186 183 183 187 189 197 197 200 199 198 202 206 201 219 237 260 253 256 258 260 261 258 255 262 264
219 242 247 239 234 255 187 252 271 323 333 316 291 236 204 195 193 193 187 184 183 182 185 187 188 189 191 196 196 203 205 209 212 212 215 220 219 225 235 243 251 257 257 256 256 256 256 253 253
222 237 255 274 276 287 226 251 272 5 346 328 307 236 180 182 185 185 186 186 185 185 188 192 193 196 197 202 204 207 211 218 219 224 229 228 236 242 248 252 255 258 257 250 243 253 254 253 251
223 230 258 274 278 277 260 253 270 328 70 55 96 124 159 175 178 179 181 187 186 188 191 196 197 200 200 204 208 212 214 221 223 227 232 233 239 245 249 248 250 251 251 251 246 247 251 253 256
249 229 225 244 267 269 264 259 272 287 342 317 178 163 172 174 175 178 180 187 187 190 193 195 198 203 203 205 208 210 217 220 229 228 232 236 242 243 242 245 253 254 251 249 246 248 250 248 252
209 217 227 237 249 268 276 270 23 340 342 310 264 216 182 179 179 180 181 185 184 184 189 195 200 205 207 206 210 211 215 224 226 233 238 244 250 247 248 250 255 257 255 253 246 247 242 246 248
233 234 229 239 243 245 269 273 128 274 316 312 295 239 191 184 181 178 178 178 182 189 193 200 203 204 205 207 210 214 215 221 227 234 239 241 247 249 249 250 252 255 258 257 252 249 247 248 251
Height
1515 1515 1515 1517 1515 1514 1518 1519 1516 1518 1520 1522 1523 1522 1522 1523 1526 1533 1533 1530 1530 1530 1529 1528 1528 1528 1528 1528 1528 1528 1528 1528 1528 1527 1528 1528 1528 1527 1527 1527 1527 1527 1527 1527 1526 1526 1526 1526 1525
1516 1516 1518 1517 1513 1518 1522 1518 1518 1520 1522 1524 1524 1524 1524 1527 1530 1531 1531 1531 1531 1531 1530 1530 1529 1529 1529 1529 1529 1529 1529 1529 1529 1529 1529 1529 1529 1529 1529 1529 1529 1528 1528 1528 1528 1527 1527 1527 1526
1516 1516 1519 1515 1514 1517 1521 1519 1520 1523 1524 1524 1525 1526 1527 1530 1531 1532 1532 1532 1532 1532 1531 1531 1530 1530 1530 1530 1530 1530 1530 1530 1530 1530 1530 1530 1530 1530 1530 1530 1530 1530 1529 1529 1529 1528 1528 1527 1527
1517 1519 1518 1516 1519 1519 1518 1520 1521 1523 1525 1525 1525 1527 1530 1532 1533 1533 1533 1533 1533 1533 1532 1532 1531 1531 1531 1531 1531 1531 1531 1531 1531 1531 1531 1531 1531 1531 1531 1531 1531 1531 1530 1530 1530 1529 1529 1528 1528
1518 1518 1516 1518 1520 1520 1520 1522 1523 1523 1524 1526 1526 1527 1531 1533 1533 1533 1533 1534 1534 1534 1533 1533 1532 1532 1532 1532 1532 1532 1532 1532 1532 1532 1532 1532 1532 1532 1532 1532 1532 1532 1531 1531 1531 1530 1530 1529 1529
1519 1516 1518 1521 1522 1521 1522 1524 1524 1523 1525 1527 1528 1528 1532 1534 1534 1534 1534 1535 1535 1535 1535 1534 1533 1533 1533 1533 1533 1533 1533 1533 1533 1533 1534 1533 1533 1533 1533 1533 1533 1533 1532 1532 1532 1531 1531 1530 1530
1519 1516 1518 1520 1523 1522 1524 1525 1524 1524 1525 1528 1529 1529 1532 1534 1534 1535 1535 1535 1536 1536 1536 1536 1536 1535 1535 1534 1535 1535 1535 1535 1535 1535 1535 1535 1534 1534 1534 1534 1534 1534 1534 1533 1533 1532 1532 1531 1531
1519 1518 1519 1520 1522 1524 1525 1526 1526 1526 1527 1529 1530 1529 1532 1535 1535 1535 1536 1536 1536 1537 1537 1537 1537 1537 1537 1537 1536 1536 1536 1536 1536 1536 1536 1536 1536 1536 1536 1536 1535 1535 1535 1534 1534 1533 1533 1532 1532
1519 1519 1520 1521 1522 1523 1525 1526 1528 1528 1529 1530 1531 1532 1533 1534 1535 1536 1537 1537 1537 1537 1537 1538 1538 1538 1538 1538 1537 1537 1537 1537 1537 1537 1537 1537 1538 1538 1537 1537 1536 1536 1535 1535 1535 1534 1534 1533 1533
1519 1519 1520 1521 1521 1523 1525 1526 1527 1528 1528 1530 1531 1532 1533 1534 1535 1536 1537 1537 1537 1538 1538 1538 1539 1539 1539 1539 1539 1539 1539 1539 1539 1539 1539 1539 1539 1539 1538 1537 1537 1537 1536 1536 1536 1535 1535 1535 1535
1519 1520 1521 1522 1524 1525 1525 1526 1527 1527 1528 1529 1530 1532 1533 1534 1535 1536 1537 1537 1538 1539 1539 1539 1539 1540 1540 1540 1540 1540 1540 1540 1540 1540 1540 1539 1539 1539 1539 1539 1538 1538 1538 1538 1537 1537 1537 1536 1535
1520 1521 1522 1523 1525 1525 1526 1526 1527 1528 1529 1530 1531 1532 1533 1534 1535 1536 1537 1538 1538 1539 1539 1539 1540 1540 1541 1541 1541 1541 1541 1541 1541 1541 1541 1540 1540 1540 1540 1540 1539 1539 1539 1538 1538 1538 1538 1537 1537
1521 1522 1524 1525 1526 1526 1526 1527 1527 1528 1529 1530 1531 1532 1533 1534 1535 1536 1537 1538 1538 1539 1539 1540 1540 1541 1541 1541 1541 1542 1542 1542 1542 1541 1541 1541 1541 1541 1540 1540 1539 1539 1539 1539 1538 1538 1538 1538 1537
1522 1523 1524 1524 1525 1525 1526 1526 1527 1527 1528 1529 1530 1531 1532 1533 1535 1536 1536 1537 1538 1539 1539 1540 1540 1541 1541 1542 1542 1542 1542 1542 1542 1542 1542 1541 1541 1541 1541 1541 1540 1540 1539 1539 1539 1539 1538 1538 1537
1523 1522 1522 1523 1523 1524 1525 1524 1525 1526 1527 1528 1529 1530 1532 1533 1534 1535 1535 1536 1537 1538 1539 1540 1540 1541 1541 1542 1542 1542 1542 1542 1542 1542 1542 1542 1541 1541 1541 1541 1540 1540 1540 1539 1539 1539 1539 1538 1538
1521 1521 1522 1521 1522 1523 1525 1524 1523 1525 1526 1527 1528 1529 1530 1532 1533 1534 1535 1536 1537 1538 1539 1539 1540 1541 1541 1541 1542 1542 1542 1542 1542 1542 1542 1542 1542 1541 1541 1540 1540 1540 1539 1539 1539 1539 1539 1538 1538
1519 1520 1521 1520 1521 1521 1521 1521 1521 1524 1525 1525 1526 1527 1528 1530 1531 1532 1533 1535 1536 1537 1538 1539 1539 1540 1541 1541 1541 1541 1542 1541 1542 1542 1542 1542 1542 1541 1541 1540 1540 1540 1539 1539 1539 1539 1539 1538 1538
1520 1518 1519 1519 1518 1520 1520 1519 1519 1521 1522 1523 1524 1525 1526 1527 1529 1530 1531 1533 1534 1536 1537 1538 1539 1539 1540 1540 1541 1541 1541 1541 1541 1541 1541 1541 1541 1541 1541 1540 1540 1540 1539 1539 1539 1538 1538 1538 1538
1516 1518 1519 1517 1517 1519 1517 1516 1515 1518 1519 1520 1521 1522 1523 1525 1527 1528 1529 1531 1533 1534 1535 1536 1537 1538 1539 1539 1540 1540 1541 1541 1541 1541 1541 1541 1541 1541 1540 1540 1540 1539 1539 1539 1538 1538 1538 1538 1538
1517 1519 1517 1516 1516 1517 1515 1514 1512 1514 1516 1517 1518 1519 1520 1522 1524 1526 1527 1529 1530 1532 1533 1535 1536 1537 1538 1538 1539 1540 1540 1540 1540 1540 1540 1540 1540 1540 1540 1540 1539 1538 1538 1538 1538 1537 1538 1538 1537
1516 1516 1515 1516 1516 1515 1515 1511 1508 1509 1512 1514 1516 1517 1518 1519 1521 1523 1525 1526 1528 1530 1531 1533 1534 1536 1536 1537 1538 1538 1539 1539 1540 1539 1539 1539 1539 1539 1539 1539 1539 1538 1538 1538 1537 1537 1537 1537 1537
1515 1511 1514 1516 1517 1514 1515 1516 1505 1504 1508 1510 1512 1513 1515 1517 1519 1521 1522 1524 1526 1527 1529 1531 1532 1534 1535 1535 1536 1537 1537 1538 1538 1539 1539 1539 1539 1539 1538 1538 1538 1537 1537 1537 1537 1536 1536 1536 1536
1510 1511 1513 1513 1514 1514 1511 1515 1504 1502 1505 1505 1508 1510 1512 1514 1516 1518 1520 1522 1524 1525 1527 1529 1531 1532 1533 1534 1534 1535 1536 1537 1537 1537 1538 1538 1538 1537 1537 1537 1537 1536 1536 1536 1535 1535 1535 1535 1535
1510 1512 1512 1511 1511 1518 1510 1513 1509 1500 1501 1501 1504 1507 1509 1511 1513 1515 1518 1520 1522 1523 1525 1526 1528 1529 1531 1531 1532 1533 1534 1535 1536 1536 1536 1536 1536 1536 1536 1536 1535 1535 1535 1534 1534 1534 1533 1533 1533
1510 1512 1517 1517 1516 1514 1507 1512 1508 1499 1501 1502 1504 1505 1507 1509 1511 1513 1515 1517 1519 1520 1522 1524 1526 1527 1528 1530 1531 1532 1533 1534 1534 1535 1535 1535 1535 1535 1535 1534 1534 1534 1533 1533 1533 1532 1532 1532 1532
1506 1508 1517 1523 1518 1510 1508 1511 1502 1500 1503 1503 1504 1505 1506 1507 1509 1510 1512 1514 1516 1518 1519 1521 1523 1525 1526 1527 1529 1530 1531 1532 1532 1533 1534 1534 1534 1534 1533 1533 1533 1532 1532 1531 1531 1531 1531 1531 1530
1505 1506 1504 1510 1511 1515 1507 1503 1499 1499 1501 1503 1503 1504 1505 1506 1507 1509 1510 1512 1514 1515 1517 1519 1520 1522 1523 1525 1526 1527 1528 1529 1530 1531 1532 1532 1532 1532 1531 1531 1531 1531 1530 1530 1529 1529 1529 1529 1528
1503 1503 1507 1511 1518 1518 1510 1506 1502 1499 1499 1501 1502 1503 1504 1506 1507 1508 1509 1510 1512 1513 1515 1516 1518 1519 1521 1522 1523 1524 1526 1527 1528 1528 1529 1530 1530 1530 1530 1530 1529 1529 1528 1528 1527 1527 1527 1527 1526
1505 1505 1504 1505 1507 1514 1515 1507 1497 1499 1500 1500 1501 1503 1504 1504 1506 1507 1508 1509 1510 1511 1512 1514 1515 1517 1518 1519 1521 1522 1523 1524 1525 1526 1526 1527 1527 1528 1528 1527 1527 1527 1526 1526 1525 1525 1524 1524 1524
1500 1499 1501 1509 1507 1506 1509 1507 1496 1499 1500 1501 1501 1502 1503 1504 1505 1506 1507 1508 1508 1509 1510 1511 1512 1514 1515 1516 1517 1519 1520 1521 1522 1523 1524 1524 1525 1525 1525 1525 1525 1524 1524 1523 1523 1522 1522 1522 1521